Regional Weather Roundup
Issued by NWS

Home | Current Version | Previous Version | Graphics & Text | Print | Product List | Glossary On
Versions: 1 2 3 4 5 6 7 8 9 10 11 12 13 14 15 16 17 18 19 20 21 22 23 24 25 26 27 28 29 30 31 32 33 34 35 36 37 38 39 40 41 42 43 44 45 46 47 48 49 50
000
ASUS43 KDMX 222206
RWRIA

WEATHER ROUNDUP FOR IOWA
NATIONAL WEATHER SERVICE DES MOINES IA
500 PM CDT SUN OCT 22 2017

NOTE: "FAIR" INDICATES FEW OR NO CLOUDS BELOW 12,000 FEET WITH NO
SIGNIFICANT WEATHER AND/OR OBSTRUCTIONS TO VISIBILITY.

* - THESE STATIONS ARE NOT NWS STATIONS...THUS NOT UNDER NWS
QUALITY CONTROL.  THEY ALSO DO NOT REPORT WEATHER SUCH
AS PRECIPITATION OR FOG.

IAZ001>003-012>014-020>022-031>034-043>046-222300-
   NORTHWEST IOWA

CITY           SKY/WX    TMP DP  RH WIND       PRES   REMARKS
CHEROKEE *     SUNNY     64  33  31 S10       29.97F
DENISON *      SUNNY     64  32  29 S9G17     30.02F
LE MARS *      SUNNY     68  27  21 S12       29.95F
ORANGE CITY *  SUNNY     68  32  26 SW13      29.95F
SHELDON *      SUNNY     66  27  22 SW12G23   29.94S
SIOUX CITY     SUNNY     69  27  20 SW14G21   29.97S
SPENCER        SUNNY     66  27  23 SW10      29.96F
STORM LAKE *   SUNNY     64  28  25 SW13G18   29.99S
$$

IAZ055>058-069>071-079>083-090>094-222300-
   SOUTHWEST IOWA

CITY           SKY/WX    TMP DP  RH WIND       PRES   REMARKS
ATLANTIC *     SUNNY     66  28  24 SW7G14    30.03F
AUDUBON *      SUNNY     66  25  20 SW5       30.04F
CLARINDA *     SUNNY     68  30  24 CALM      30.08F
COUNCIL BLFS * SUNNY     66  30  26 SW10      30.02F
CRESTON *      SUNNY     64  34  32 W5        30.07S
HARLAN  *      SUNNY     66  32  28 SW10      30.06F
LAMONI         CLOUDY    63  39  41 CALM      30.07S
RED OAK *      SUNNY     68  30  24 SW7       30.05S
SHENANDOAH *   SUNNY     68  28  22 SW7       30.05F
$$

IAZ047>049-059>061-072>074-084-222300-
   CENTRAL IOWA

CITY           SKY/WX    TMP DP  RH WIND       PRES   REMARKS
AMES           CLOUDY    66  33  29 NW6       30.03S
ANKENY *       CLOUDY    64  34  32 W7        30.05R
BOONE *        SUNNY     64  32  29 NW6       30.02S
CHARITON *     CLOUDY    59  46  63 SE5       30.06F
DES MOINES     CLOUDY    67  32  27 N7        30.04S
GRINNELL*      PTSUNNY   58  44  59 CALM      30.06S
KNOXVILLE *    PTSUNNY   59  43  55 S5        30.05S
MARSHALLTOWN   CLOUDY    61  43  51 S3        30.03S
NEWTON *       PTSUNNY   61  43  51 S3        30.05S
PELLA *        CLOUDY    59  43  55 CALM      30.07S
PERRY *          N/A     66  24  19 CALM      30.03F
$$

IAZ004>006-015-016-023>025-035-036-222300-
   NORTH CENTRAL IOWA

CITY           SKY/WX    TMP DP  RH WIND       PRES   REMARKS
ALGONA *       SUNNY     64  30  27 SW7       29.99F
CLARION *      SUNNY     64  30  27 W5G12     30.01S
ESTHERVILLE    SUNNY     62  29  28 SW8       29.96F
MASON CITY     SUNNY     62  32  32 W7        30.02R
FOREST CITY *    N/A     63  30  29 SW6       30.00S
WEBSTER CITY * SUNNY     66  27  22 VRB3      30.00S
IOWA FALLS *     N/A     65  32  29 NW6       30.03S
$$

IAZ007>011-017>019-026>030-037>042-050>054-066-222300-
   NORTHEAST IOWA

CITY           SKY/WX    TMP DP  RH WIND       PRES   REMARKS
CEDAR RAPIDS   CLOUDY    55  46  71 W3        30.06R
CHARLES CITY * CLOUDY    64  30  27 W8        30.01S
CLINTON *      LGT RAIN  53  48  83 CALM      30.07R
DECORAH *      CLOUDY    55  43  62 CALM      30.01R
DUBUQUE        CLOUDY    53  45  74 CALM      30.06R
MONTICELLO *   CLOUDY    55  46  71 CALM      30.04S
OELWEIN *      CLOUDY    55  46  71 CALM      30.04S
WATERLOO       PTSUNNY   56  45  66 SE6       30.02S
$$

IAZ064-065-067-068-078-222300-
   EAST CENTRAL IOWA

CITY           SKY/WX    TMP DP  RH WIND       PRES   REMARKS
DAVENPORT      CLOUDY    53  47  79 CALM      30.08S
IOWA CITY      CLOUDY    57  45  64 W3        30.08R
MUSCATINE *    CLOUDY    57  48  72 NW3       30.07S
QUAD CITIES    LGT RAIN  54  49  83 CALM      30.06S
$$

IAZ062-063-075>077-085>089-095>099-222300-
   SOUTHEAST IOWA

CITY           SKY/WX    TMP DP  RH WIND       PRES   REMARKS
BURLINGTON     CLOUDY    55  49  80 CALM      30.07F
FAIRFIELD *    CLOUDY    55  45  67 CALM      30.07S
FORT MADISON * CLOUDY    55  50  82 CALM      30.08S
KEOKUK *       CLOUDY    55  50  82 NW3       30.06F
OSKALOOSA *      N/A     57  47  70 CALM      30.07S
OTTUMWA        CLOUDY    58  47  66 S3        30.07S
WASHINGTON *   CLOUDY    55  48  76 NW7       30.08S
$$

ABBREVIATIONS USED IN REMARKS
   TC - TEMPERATURES IN CELSIUS
  WCI - WIND CHILL INDEX
   HX - HEAT INDEX
  VSB - VISIBILITY
$$





USA.gov is the U.S. government's official web portal to all federal, state and local government web resources and services.